This is the latest recevied weather packets stored in our database for station/object N1IJV-10. If no packets are shown the sender has not sent any weather packets the latest 10 day(s).
| Time | Temp. | Humidity | Pressure | Rain* | Wind** | Luminosity | Snow |
|---|---|---|---|---|---|---|---|
| 1777384917 | 10.56° C | 85% | 1012.3 hPa | 0 mm | - | 90 W/m² | - |
| 1777384615 | 10.56° C | 85% | 1012.6 hPa | 0 mm | - | 77 W/m² | - |
| 1777384315 | 10.56° C | 86% | 1012.4 hPa | 0 mm | - | 52 W/m² | - |
| 1777384010 | 10.56° C | 86% | 1012.2 hPa | 0 mm | - | 61 W/m² | - |
| 1777383706 | 10° C | 87% | 1012.4 hPa | 0 mm | - | 51 W/m² | - |
| 1777383403 | 10° C | 88% | 1012.2 hPa | 0 mm | - | 45 W/m² | - |
| 1777383099 | 10° C | 88% | 1012.2 hPa | 0 mm | - | 28 W/m² | - |
| 1777382797 | 10.56° C | 87% | 1012.1 hPa | 0 mm | - | 24 W/m² | - |
| 1777382492 | 10.56° C | 85% | 1011.9 hPa | 0 mm | - | 33 W/m² | - |
| 1777382188 | 10° C | 84% | 1011.7 hPa | 0 mm | - | 27 W/m² | - |
| 1777381885 | 10° C | 84% | 1011.7 hPa | 0 mm | - | 36 W/m² | - |
| 1777381584 | 10° C | 85% | 1011.5 hPa | 0 mm | - | 42 W/m² | - |
| 1777381280 | 10° C | 85% | 1011.6 hPa | 0 mm | - | 48 W/m² | - |
| 1777380978 | 10° C | 85% | 1011.4 hPa | 0 mm | - | 45 W/m² | - |
| 1777380674 | 10° C | 86% | 1011 hPa | 0 mm | - | 35 W/m² | - |
| 1777380370 | 10° C | 88% | 1010.7 hPa | 0 mm | - | 30 W/m² | - |
| 1777380066 | 10° C | 87% | 1010.5 hPa | 0 mm | - | 23 W/m² | - |
| 1777379762 | 10° C | 88% | 1010.4 hPa | 0 mm | - | 21 W/m² | - |
| 1777379458 | 10° C | 87% | 1010.7 hPa | 0 mm | - | 20 W/m² | - |
| 1777379153 | 10° C | 87% | 1010.4 hPa | 0 mm | - | 14 W/m² | - |
| 1777378849 | 10° C | 87% | 1010 hPa | 0 mm | - | 18 W/m² | - |
| 1777378545 | 10° C | 87% | 1009.8 hPa | 0 mm | - | 21 W/m² | - |
| 1777378242 | 10° C | 88% | 1009.7 hPa | 0 mm | - | 22 W/m² | - |
| 1777377939 | 10° C | 88% | 1009.7 hPa | 0 mm | - | 16 W/m² | - |
| 1777377639 | 10° C | 89% | 1009.8 hPa | 0 mm | - | 14 W/m² | - |
* Rain latest hour (hover to see other rain measurements)
** Current wind speed in m/s (hover to see current wind gust speed)